Location: Kvarnån
(66.4000°N, 22.2667°E)
Time: 20:57:20
(UTC+00:00)

SKYMED 3 - Pass Details

Date: 15 October 2024
Orbit: 553 x 580 km, 97.9° (Epoch: 06 November)

Event Time Altitude Azimuth Distance (km) Brightness Sun altitude
Rises 18:30:25 0° 20° (NNE) 2,780 8.0 -21.1°
Reaches altitude 10° 18:32:35 10° 20° (NNE) 1,874 7.1 -21.3°
Maximum altitude 18:36:38 89° 298° (WNW) 571 4.3 -21.6°
Enters shadow 18:39:43 17° 203° (SSW) 1,467 6.4 -21.9°
